Lander, WY

5:21 PM MST on February 07, 2016 (GMT -0700)
Hunt

Weather History for KLND - April, 2014

Change the Weather History Date:

Saturday, April 5, 2014

  Actual Average Record
Temperature  
Mean Temperature 42 °F 41 °F  
Max Temperature 55 °F 53 °F 77 °F (1991)
Min Temperature 28 °F 29 °F -3 °F (1918)
Degree Days  
Heating Degree Days 23 24  
Month to date heating degree days 134 122  
Since 1 July heating degree days 6765 6741  
Cooling Degree Days 0 0  
Month to date cooling degree days 0 0  
Year to date cooling degree days 0 0  
Moisture  
Dew Point 19 °F    
Average Humidity 47    
Maximum Humidity 69    
Minimum Humidity 24    
Precipitation  
Precipitation 0.00 in 0.05 in 1.60 in (1921)
Month to date precipitation T 0.25  
Year to date precipitation 1.98 2.40  
Snow  
Snow 0.00 in 0.60 in - ()
Month to date snowfall 0.0 2.9  
Since 1 July snowfall 69.2 72.6  
Snow Depth 0.00 in    
Sea Level Pressure  
Sea Level Pressure 29.83 in    
Wind  
Wind Speed 5 mph (ENE)    
Max Wind Speed 16 mph    
Max Gust Speed 22 mph    
Visibility 10 miles    
Events      
T = Trace of Precipitation, MM = Missing Value Source: NWS Daily Summary

Daily Weather History Graph

Daily Weather History Graph

Search for Another Location

Airport or City:

Trip Planner

Search our weather history database for the weather conditions in past years. The results will help you decide how hot, cold, wet, or windy it might be!

Date:

Astronomy

Apr. 05, 2014 Rise Set
Actual Time 6:50 AM MDT 7:45 PM MDT
Civil Twilight 6:21 AM MDT 8:14 PM MDT
Nautical Twilight 5:47 AM MDT 8:48 PM MDT
Astronomical Twilight 5:11 AM MDT 9:24 PM MDT
Moon 10:55 AM MDT (4/5) 1:03 AM MDT (4/5)
Length of Visible Light 13h 53m
Length of Day
12h 55m
Waxing Crescent, 35% of the Moon is Illuminated
Apr 5
Waxing Crescent
Apr 7
First Quarter
Apr 15
Full
Apr 22
Last Quarter
Apr 29
New

Hourly Weather History & Observations

Time (MDT) Temp. Windchill Dew Point Humidity Pressure Visibility Wind Dir Wind Speed Gust Speed Precip Events Conditions
12:53 AM 36.0 °F 33.3 °F 19.9 °F 52% 29.84 in 10.0 mi WNW 3.5 mph - N/A   Clear
1:53 AM 36.0 °F 31.1 °F 19.9 °F 52% 29.83 in 10.0 mi SE 5.8 mph - N/A   Clear
2:53 AM 35.1 °F 32.2 °F 19.9 °F 54% 29.81 in 10.0 mi SE 3.5 mph - N/A   Clear
3:53 AM 33.1 °F - 21.0 °F 61% 29.81 in 10.0 mi Calm Calm - N/A   Clear
4:53 AM 34.0 °F 26.0 °F 19.9 °F 56% 29.82 in 10.0 mi West 10.4 mph - N/A   Clear
5:53 AM 35.1 °F - 19.9 °F 54% 29.81 in 10.0 mi Calm Calm - N/A   Clear
6:53 AM 33.1 °F 27.7 °F 18.0 °F 54% 29.84 in 10.0 mi SW 5.8 mph - N/A   Clear
7:53 AM 30.9 °F - 21.0 °F 67% 29.88 in 10.0 mi Calm Calm - N/A   Clear
8:53 AM 37.9 °F 32.1 °F 25.0 °F 60% 29.86 in 10.0 mi NNE 8.1 mph - N/A   Clear
9:53 AM 42.1 °F 37.7 °F 21.0 °F 43% 29.84 in 10.0 mi NNE 6.9 mph - N/A   Clear
10:53 AM 46.9 °F - 19.9 °F 34% 29.83 in 10.0 mi North 5.8 mph - N/A   Clear
11:53 AM 48.9 °F - 18.0 °F 29% 29.82 in 10.0 mi ESE 4.6 mph - N/A   Clear
12:53 PM 50.0 °F - 18.0 °F 28% 29.81 in 10.0 mi ESE 3.5 mph - N/A   Clear
1:53 PM 52.0 °F - 17.1 °F 25% 29.78 in 10.0 mi ESE 6.9 mph - N/A   Clear
2:53 PM 53.1 °F - 17.1 °F 24% 29.77 in 10.0 mi Variable 4.6 mph - N/A   Mostly Cloudy
3:53 PM 52.0 °F - 18.0 °F 26% 29.78 in 10.0 mi NNW 12.7 mph - N/A   Overcast
4:53 PM 53.1 °F - 18.0 °F 25% 29.76 in 10.0 mi Calm Calm - N/A   Partly Cloudy
5:53 PM 52.0 °F - 16.0 °F 24% 29.77 in 10.0 mi Calm Calm - N/A   Mostly Cloudy
6:53 PM 51.1 °F - 18.0 °F 27% 29.79 in 10.0 mi South 5.8 mph - N/A   Clear
7:53 PM 46.9 °F - 17.1 °F 30% 29.84 in 10.0 mi North 6.9 mph - N/A   Overcast
8:53 PM 44.1 °F - 17.1 °F 34% 29.87 in 10.0 mi Calm Calm - N/A   Clear
9:53 PM 39.0 °F 32.3 °F 19.0 °F 45% 29.89 in 10.0 mi North 10.4 mph - N/A   Scattered Clouds
10:53 PM 39.0 °F 36.8 °F 19.0 °F 45% 29.89 in 10.0 mi Variable 3.5 mph - N/A   Clear
11:53 PM 34.0 °F - 21.0 °F 59% 29.91 in 10.0 mi Calm Calm - N/A   Clear